Time,TemperatureF,DewpointF,PressureIn,WindDirection,WindDirectionDegrees,WindSpeedMPH,WindSpeedGustMPH,Humidity,HourlyPrecipIn,Conditions,Clouds,dailyrainin,SoftwareType,DateUTC
2013-07-24 00:05:00,73.6,66.0,29.03,SSW,209,0.0,0.0,77,0.00,,---,0.00,VWS V14.00,2013-07-24 05:05:00,
2013-07-24 00:08:00,73.6,66.0,29.03,SSW,209,0.0,0.0,77,0.00,,---,0.00,VWS V14.00,2013-07-24 05:08:00,
2013-07-24 00:14:00,73.6,65.6,29.03,SSW,209,0.0,0.0,76,0.00,,---,0.00,VWS V14.00,2013-07-24 05:14:00,
2013-07-24 00:16:00,73.6,65.6,29.03,SSW,209,0.0,0.0,76,0.00,,---,0.00,VWS V14.00,2013-07-24 05:16:00,
2013-07-24 00:17:00,73.6,65.6,29.03,SSW,209,0.0,0.0,76,0.00,,---,0.00,VWS V14.00,2013-07-24 05:17:00,
2013-07-24 00:20:00,73.6,65.6,29.03,SSW,209,0.0,0.0,76,0.00,,---,0.00,VWS V14.00,2013-07-24 05:20:00,
2013-07-24 00:23:00,73.6,66.0,29.03,SSW,209,0.0,0.0,77,0.00,,---,0.00,VWS V14.00,2013-07-24 05:23:00,
2013-07-24 00:29:00,73.6,66.0,29.03,SSW,209,0.0,0.0,77,0.00,,---,0.00,VWS V14.00,2013-07-24 05:29:00,
2013-07-24 00:31:00,73.6,66.0,29.03,SSW,209,0.0,0.0,77,0.00,,---,0.00,VWS V14.00,2013-07-24 05:31:00,
2013-07-24 00:32:00,73.6,66.0,29.03,SSW,209,0.0,0.0,77,0.00,,---,0.00,VWS V14.00,2013-07-24 05:32:00,
2013-07-24 00:35:00,73.6,66.0,29.03,SSW,209,0.0,0.0,77,0.00,,---,0.00,VWS V14.00,2013-07-24 05:35:00,
2013-07-24 00:38:00,73.6,66.0,29.03,SSW,209,0.0,0.0,77,0.00,,---,0.00,VWS V14.00,2013-07-24 05:38:00,
2013-07-24 00:41:00,73.6,66.0,29.03,SSW,209,0.0,2.7,77,0.00,,---,0.00,VWS V14.00,2013-07-24 05:41:00,
2013-07-24 00:45:00,73.6,65.6,29.03,SSW,209,0.0,2.7,76,0.00,,---,0.00,VWS V14.00,2013-07-24 05:45:00,
2013-07-24 00:46:00,73.6,65.6,29.03,SSW,209,0.0,2.7,76,0.00,,---,0.00,VWS V14.00,2013-07-24 05:46:00,
2013-07-24 00:48:00,73.6,65.6,29.03,SSW,209,0.0,0.0,76,0.00,,---,0.00,VWS V14.00,2013-07-24 05:48:00,
2013-07-24 00:54:00,73.6,65.6,29.03,SSW,209,0.0,0.0,76,0.00,,---,0.00,VWS V14.00,2013-07-24 05:54:00,
2013-07-24 00:57:00,73.6,65.6,29.03,SSW,209,0.0,0.0,76,0.00,,---,0.00,VWS V14.00,2013-07-24 05:57:00,
2013-07-24 01:00:00,73.6,65.6,29.03,SSW,209,0.0,0.0,76,0.00,,---,0.00,VWS V14.00,2013-07-24 06:00:00,
2013-07-24 01:01:00,73.6,65.6,29.03,SSW,209,0.0,0.0,76,0.00,,---,0.00,VWS V14.00,2013-07-24 06:01:00,
2013-07-24 01:03:00,73.6,65.6,29.03,SSW,209,0.0,0.0,76,0.00,,---,0.00,VWS V14.00,2013-07-24 06:03:00,
2013-07-24 01:09:00,73.5,65.8,29.03,SSW,209,0.0,0.0,77,0.00,,---,0.00,VWS V14.00,2013-07-24 06:09:00,
2013-07-24 01:12:00,73.6,66.0,29.03,SSW,209,0.0,0.0,77,0.00,,---,0.00,VWS V14.00,2013-07-24 06:12:00,
2013-07-24 01:15:00,73.6,66.0,29.06,SSW,209,0.0,0.0,77,0.00,,---,0.00,VWS V14.00,2013-07-24 06:15:00,
2013-07-24 01:16:00,73.6,66.0,29.06,SSW,209,0.0,0.0,77,0.00,,---,0.00,VWS V14.00,2013-07-24 06:16:00,
2013-07-24 01:18:00,73.6,66.0,29.06,SSW,209,0.0,0.0,77,0.00,,---,0.00,VWS V14.00,2013-07-24 06:18:00,
2013-07-24 01:21:00,73.6,66.0,29.06,SSW,209,0.0,0.0,77,0.00,,---,0.00,VWS V14.00,2013-07-24 06:21:00,
2013-07-24 01:24:00,73.6,66.0,29.06,SSW,209,0.0,0.0,77,0.00,,---,0.00,VWS V14.00,2013-07-24 06:24:00,
2013-07-24 01:30:00,73.6,66.0,29.03,SSW,209,0.0,0.0,77,0.00,,---,0.00,VWS V14.00,2013-07-24 06:30:00,
2013-07-24 01:33:00,73.6,66.0,29.03,SSW,209,0.0,0.0,77,0.00,,---,0.00,VWS V14.00,2013-07-24 06:33:00,
2013-07-24 01:39:00,73.5,66.2,29.03,SSW,209,0.0,0.0,78,0.00,,---,0.00,VWS V14.00,2013-07-24 06:39:00,
2013-07-24 01:42:00,73.5,66.2,29.06,SSW,209,0.0,0.0,78,0.00,,---,0.00,VWS V14.00,2013-07-24 06:42:00,
2013-07-24 01:45:00,73.5,66.2,29.06,SSW,209,0.0,0.0,78,0.00,,---,0.00,VWS V14.00,2013-07-24 06:45:00,
2013-07-24 01:46:00,73.5,66.2,29.06,SSW,209,0.0,0.0,78,0.00,,---,0.00,VWS V14.00,2013-07-24 06:46:00,
2013-07-24 01:51:00,73.5,66.2,29.06,SSW,209,0.0,0.0,78,0.00,,---,0.00,VWS V14.00,2013-07-24 06:51:00,
2013-07-24 01:54:00,73.5,66.2,29.06,SSW,209,0.0,0.0,78,0.00,,---,0.00,VWS V14.00,2013-07-24 06:54:00,
2013-07-24 01:57:00,73.5,66.2,29.03,SSW,209,0.0,0.0,78,0.00,,---,0.00,VWS V14.00,2013-07-24 06:57:00,
2013-07-24 02:00:00,73.5,66.2,29.03,SSW,209,0.0,0.0,78,0.00,,---,0.00,VWS V14.00,2013-07-24 07:00:00,
2013-07-24 02:03:00,73.5,66.2,29.03,SSW,209,0.0,0.0,78,0.00,,---,0.00,VWS V14.00,2013-07-24 07:03:00,
2013-07-24 02:06:00,73.5,66.2,29.03,SSW,209,0.0,0.0,78,0.00,,---,0.00,VWS V14.00,2013-07-24 07:06:00,
2013-07-24 02:09:00,73.5,66.2,29.03,SSW,209,0.0,0.0,78,0.00,,---,0.00,VWS V14.00,2013-07-24 07:09:00,
2013-07-24 02:12:00,73.5,66.2,29.03,SSW,209,0.0,0.0,78,0.00,,---,0.00,VWS V14.00,2013-07-24 07:12:00,
2013-07-24 02:15:00,73.5,66.2,29.03,SSW,209,0.0,0.0,78,0.00,,---,0.00,VWS V14.00,2013-07-24 07:15:00,
2013-07-24 02:16:00,73.5,66.2,29.03,SSW,209,0.0,0.0,78,0.00,,---,0.00,VWS V14.00,2013-07-24 07:16:00,
2013-07-24 02:18:00,73.5,66.2,29.03,SSW,209,0.0,0.0,78,0.00,,---,0.00,VWS V14.00,2013-07-24 07:18:00,
2013-07-24 02:24:00,73.5,66.6,29.03,SSW,209,0.0,0.0,79,0.00,,---,0.00,VWS V14.00,2013-07-24 07:24:00,
2013-07-24 02:27:00,73.5,66.6,29.03,SSW,209,0.0,0.0,79,0.00,,---,0.00,VWS V14.00,2013-07-24 07:27:00,
2013-07-24 02:30:00,73.5,66.6,29.03,SSW,209,0.0,0.0,79,0.00,,---,0.00,VWS V14.00,2013-07-24 07:30:00,
2013-07-24 02:31:00,73.5,66.6,29.03,SSW,209,0.0,0.0,79,0.00,,---,0.00,VWS V14.00,2013-07-24 07:31:00,
2013-07-24 02:33:00,73.3,66.4,29.03,SSW,209,0.0,0.0,79,0.00,,---,0.00,VWS V14.00,2013-07-24 07:33:00,
2013-07-24 02:36:00,73.5,66.6,29.03,SSW,209,0.0,0.0,79,0.00,,---,0.00,VWS V14.00,2013-07-24 07:36:00,
2013-07-24 02:39:00,73.5,66.6,29.03,SSW,209,0.0,0.0,79,0.00,,---,0.00,VWS V14.00,2013-07-24 07:39:00,
2013-07-24 02:42:00,73.5,66.6,29.03,SSW,209,0.0,0.0,79,0.00,,---,0.00,VWS V14.00,2013-07-24 07:42:00,
2013-07-24 02:46:00,73.5,66.6,29.03,SSW,209,0.0,0.0,79,0.00,,---,0.00,VWS V14.00,2013-07-24 07:46:00,
2013-07-24 02:51:00,73.5,66.6,29.03,SSW,209,0.0,0.0,79,0.00,,---,0.00,VWS V14.00,2013-07-24 07:51:00,
2013-07-24 02:54:00,73.5,66.6,29.03,SSW,209,0.0,0.0,79,0.00,,---,0.00,VWS V14.00,2013-07-24 07:54:00,
2013-07-24 02:57:00,73.5,66.6,29.03,SSW,209,0.0,0.0,79,0.00,,---,0.00,VWS V14.00,2013-07-24 07:57:00,
2013-07-24 03:00:00,73.5,66.6,29.03,SSW,209,0.0,0.0,79,0.00,,---,0.00,VWS V14.00,2013-07-24 08:00:00,
2013-07-24 03:06:00,73.5,66.6,29.03,SSW,209,0.0,0.0,79,0.00,,---,0.00,VWS V14.00,2013-07-24 08:06:00,
2013-07-24 03:09:00,73.5,66.9,29.03,SSW,209,0.0,0.0,80,0.00,,---,0.00,VWS V14.00,2013-07-24 08:09:00,
2013-07-24 03:15:00,73.5,66.9,29.03,SSW,209,0.0,0.0,80,0.00,,---,0.00,VWS V14.00,2013-07-24 08:15:00,
2013-07-24 03:18:00,73.5,66.9,29.03,SSW,209,0.0,0.0,80,0.00,,---,0.00,VWS V14.00,2013-07-24 08:18:00,
2013-07-24 03:24:00,73.5,66.9,29.03,SSW,209,0.0,0.0,80,0.00,,---,0.00,VWS V14.00,2013-07-24 08:24:00,
2013-07-24 03:28:00,73.5,66.6,29.03,SSW,209,0.0,0.0,79,0.00,,---,0.00,VWS V14.00,2013-07-24 08:28:00,
2013-07-24 03:31:00,73.5,66.6,29.03,SSW,209,0.0,0.0,79,0.00,,---,0.00,VWS V14.00,2013-07-24 08:31:00,
2013-07-24 03:37:00,73.5,66.6,29.03,SSW,196,0.0,3.1,79,0.00,,---,0.00,VWS V14.00,2013-07-24 08:37:00,
2013-07-24 03:40:00,73.5,66.6,29.03,SSW,196,0.0,3.1,79,0.00,,---,0.00,VWS V14.00,2013-07-24 08:40:00,
2013-07-24 03:43:00,73.5,66.6,29.03,SSW,196,0.0,3.1,79,0.00,,---,0.00,VWS V14.00,2013-07-24 08:43:00,
2013-07-24 03:49:00,73.5,66.6,29.03,SSW,196,0.0,0.0,79,0.00,,---,0.00,VWS V14.00,2013-07-24 08:49:00,
2013-07-24 03:52:00,73.5,66.6,29.03,SSW,196,0.0,0.0,79,0.00,,---,0.00,VWS V14.00,2013-07-24 08:52:00,
2013-07-24 03:55:00,73.5,66.6,29.03,SSW,196,0.0,0.0,79,0.00,,---,0.00,VWS V14.00,2013-07-24 08:55:00,
2013-07-24 03:58:00,73.5,66.6,29.03,SSW,193,2.2,4.0,79,0.00,,---,0.00,VWS V14.00,2013-07-24 08:58:00,
2013-07-24 04:01:00,73.5,66.6,29.03,SSE,160,0.0,4.0,79,0.00,,---,0.00,VWS V14.00,2013-07-24 09:01:00,
2013-07-24 04:04:00,73.5,66.6,29.03,West,268,4.0,4.0,79,0.00,,---,0.00,VWS V14.00,2013-07-24 09:04:00,
2013-07-24 04:07:00,73.5,66.6,29.03,South,187,0.0,4.0,79,0.00,,---,0.00,VWS V14.00,2013-07-24 09:07:00,
2013-07-24 04:10:00,73.5,66.6,29.03,SSE,150,0.0,4.0,79,0.00,,---,0.00,VWS V14.00,2013-07-24 09:10:00,
2013-07-24 04:13:00,73.3,66.4,29.03,East,98,4.9,4.9,79,0.00,,---,0.00,VWS V14.00,2013-07-24 09:13:00,
2013-07-24 04:16:00,73.3,66.4,29.03,SSE,151,3.6,5.4,79,0.00,,---,0.00,VWS V14.00,2013-07-24 09:16:00,
2013-07-24 04:19:00,73.1,66.2,29.03,SE,139,4.9,6.3,79,0.00,,---,0.00,VWS V14.00,2013-07-24 09:19:00,
2013-07-24 04:22:00,73.1,66.2,29.03,SE,135,3.1,6.3,79,0.00,,---,0.00,VWS V14.00,2013-07-24 09:22:00,
2013-07-24 04:25:00,73.1,66.2,29.03,South,177,4.9,6.3,79,0.00,,---,0.00,VWS V14.00,2013-07-24 09:25:00,
2013-07-24 04:28:00,73.1,66.2,29.00,SW,217,0.0,6.3,79,0.00,,---,0.00,VWS V14.00,2013-07-24 09:28:00,
2013-07-24 04:31:00,73.1,66.2,29.00,North,0,0.0,6.3,79,0.00,,---,0.00,VWS V14.00,2013-07-24 09:31:00,
2013-07-24 04:34:00,73.1,66.2,29.00,NNW,337,0.0,0.0,79,0.00,,---,0.00,VWS V14.00,2013-07-24 09:34:00,
2013-07-24 04:37:00,73.1,66.2,29.00,North,0,0.0,4.0,79,0.00,,---,0.00,VWS V14.00,2013-07-24 09:37:00,
2013-07-24 04:40:00,73.1,66.2,29.00,NNW,333,0.0,4.0,79,0.00,,---,0.00,VWS V14.00,2013-07-24 09:40:00,
2013-07-24 04:43:00,73.3,66.4,29.03,NW,326,0.0,5.4,79,0.00,,---,0.00,VWS V14.00,2013-07-24 09:43:00,
2013-07-24 04:49:00,73.3,66.7,29.03,NNW,345,2.7,4.0,80,0.00,,---,0.00,VWS V14.00,2013-07-24 09:49:00,
2013-07-24 04:52:00,73.3,66.7,29.03,NNW,332,3.6,4.0,80,0.00,,---,0.00,VWS V14.00,2013-07-24 09:52:00,
2013-07-24 04:58:00,73.3,66.7,29.06,NNW,341,4.9,4.9,80,0.00,,---,0.00,VWS V14.00,2013-07-24 09:58:00,
2013-07-24 05:01:00,73.3,66.7,29.06,North,353,0.0,4.9,80,0.00,,---,0.00,VWS V14.00,2013-07-24 10:01:00,
2013-07-24 05:04:00,73.3,66.7,29.06,North,353,2.7,3.1,80,0.00,,---,0.00,VWS V14.00,2013-07-24 10:04:00,
2013-07-24 05:10:00,73.3,66.7,29.06,NNE,24,0.0,3.6,80,0.00,,---,0.00,VWS V14.00,2013-07-24 10:10:00,
2013-07-24 05:13:00,73.3,66.7,29.03,NNE,24,0.0,3.6,80,0.00,,---,0.00,VWS V14.00,2013-07-24 10:13:00,
2013-07-24 05:19:00,73.3,66.7,29.03,NW,322,0.0,0.0,80,0.00,,---,0.00,VWS V14.00,2013-07-24 10:19:00,
2013-07-24 05:22:00,73.3,66.7,29.03,NW,324,0.0,0.0,80,0.00,,---,0.00,VWS V14.00,2013-07-24 10:22:00,
2013-07-24 05:25:00,73.3,66.7,29.03,NW,324,0.0,0.0,80,0.00,,---,0.00,VWS V14.00,2013-07-24 10:25:00,
2013-07-24 05:28:00,73.3,66.7,29.03,NW,324,0.0,0.0,80,0.00,,---,0.00,VWS V14.00,2013-07-24 10:28:00,
2013-07-24 05:31:00,73.3,66.7,29.03,NW,324,0.0,0.0,80,0.00,,---,0.00,VWS V14.00,2013-07-24 10:31:00,
2013-07-24 05:34:00,73.3,66.7,29.03,NW,324,0.0,0.0,80,0.00,,---,0.00,VWS V14.00,2013-07-24 10:34:00,
2013-07-24 05:37:00,73.3,66.7,29.03,NW,324,0.0,0.0,80,0.00,,---,0.00,VWS V14.00,2013-07-24 10:37:00,
2013-07-24 05:43:00,73.3,66.4,29.03,SSW,207,0.0,0.0,79,0.00,,---,0.00,VWS V14.00,2013-07-24 10:43:00,
2013-07-24 05:46:00,73.3,66.4,29.03,SSW,207,0.0,0.0,79,0.00,,---,0.00,VWS V14.00,2013-07-24 10:46:00,
2013-07-24 05:52:00,73.1,66.6,29.03,SSW,207,0.0,0.0,80,0.00,,---,0.00,VWS V14.00,2013-07-24 10:52:00,
2013-07-24 05:55:00,73.1,66.6,29.03,SSW,207,0.0,0.0,80,0.00,,---,0.00,VWS V14.00,2013-07-24 10:55:00,
2013-07-24 05:58:00,73.1,66.6,29.06,SSW,207,0.0,0.0,80,0.00,,---,0.00,VWS V14.00,2013-07-24 10:58:00,
2013-07-24 06:01:00,73.1,66.6,29.06,SSW,207,0.0,0.0,80,0.00,,---,0.00,VWS V14.00,2013-07-24 11:01:00,
2013-07-24 06:04:00,73.1,66.6,29.06,SSW,207,0.0,0.0,80,0.00,,---,0.00,VWS V14.00,2013-07-24 11:04:00,
2013-07-24 06:07:00,73.1,66.6,29.06,SSW,207,0.0,0.0,80,0.00,,---,0.00,VWS V14.00,2013-07-24 11:07:00,
2013-07-24 06:13:00,73.1,66.6,29.03,SSW,207,0.0,0.0,80,0.00,,---,0.00,VWS V14.00,2013-07-24 11:13:00,
2013-07-24 06:17:00,72.9,66.4,29.03,SSW,207,0.0,0.0,80,0.00,,---,0.00,VWS V14.00,2013-07-24 11:17:00,
2013-07-24 06:20:00,72.9,66.4,29.03,SSW,207,0.0,0.0,80,0.00,,---,0.00,VWS V14.00,2013-07-24 11:20:00,
2013-07-24 06:23:00,72.9,66.4,29.03,SSW,207,0.0,0.0,80,0.00,,---,0.00,VWS V14.00,2013-07-24 11:23:00,
2013-07-24 06:29:00,72.9,66.4,29.06,SSW,207,0.0,0.0,80,0.00,,---,0.00,VWS V14.00,2013-07-24 11:29:00,
2013-07-24 06:32:00,72.9,66.0,29.06,SSW,207,0.0,0.0,79,0.00,,---,0.00,VWS V14.00,2013-07-24 11:32:00,
2013-07-24 06:35:00,72.9,66.0,29.06,SSW,207,0.0,0.0,79,0.00,,---,0.00,VWS V14.00,2013-07-24 11:35:00,
2013-07-24 06:41:00,72.9,66.0,29.06,SSW,207,0.0,0.0,79,0.00,,---,0.00,VWS V14.00,2013-07-24 11:41:00,
2013-07-24 06:44:00,72.9,66.0,29.06,SSW,207,0.0,0.0,79,0.00,,---,0.00,VWS V14.00,2013-07-24 11:44:00,
2013-07-24 06:46:00,72.9,66.0,29.06,SSW,207,0.0,0.0,79,0.00,,---,0.00,VWS V14.00,2013-07-24 11:46:00,
2013-07-24 06:50:00,72.9,66.0,29.06,SSW,207,0.0,0.0,79,0.00,,---,0.00,VWS V14.00,2013-07-24 11:50:00,
2013-07-24 06:56:00,72.9,66.0,29.06,SSW,207,0.0,0.0,79,0.00,,---,0.00,VWS V14.00,2013-07-24 11:56:00,
2013-07-24 06:59:00,72.9,66.0,29.06,SSW,207,0.0,0.0,79,0.00,,---,0.00,VWS V14.00,2013-07-24 11:59:00,
2013-07-24 07:01:00,72.9,66.0,29.06,SSW,207,0.0,0.0,79,0.00,,---,0.00,VWS V14.00,2013-07-24 12:01:00,
2013-07-24 07:02:00,72.9,66.0,29.06,SSW,207,0.0,0.0,79,0.00,,---,0.00,VWS V14.00,2013-07-24 12:02:00,
2013-07-24 07:05:00,72.9,66.0,29.06,SSW,207,0.0,0.0,79,0.00,,---,0.00,VWS V14.00,2013-07-24 12:05:00,
2013-07-24 07:08:00,72.9,66.0,29.06,SSW,207,0.0,0.0,79,0.00,,---,0.00,VWS V14.00,2013-07-24 12:08:00,
2013-07-24 07:11:00,72.9,66.0,29.06,SSW,207,0.0,0.0,79,0.00,,---,0.00,VWS V14.00,2013-07-24 12:11:00,
2013-07-24 07:14:00,72.7,66.2,29.06,SSW,207,0.0,0.0,80,0.00,,---,0.00,VWS V14.00,2013-07-24 12:14:00,
2013-07-24 07:16:00,72.9,66.4,29.06,SSW,207,0.0,0.0,80,0.00,,---,0.00,VWS V14.00,2013-07-24 12:16:00,
2013-07-24 07:17:00,72.9,66.4,29.06,SSW,207,0.0,0.0,80,0.00,,---,0.00,VWS V14.00,2013-07-24 12:17:00,
2013-07-24 07:20:00,72.9,66.4,29.06,SSW,207,0.0,0.0,80,0.00,,---,0.00,VWS V14.00,2013-07-24 12:20:00,
2013-07-24 07:23:00,72.9,66.4,29.06,SSW,207,0.0,0.0,80,0.00,,---,0.00,VWS V14.00,2013-07-24 12:23:00,
2013-07-24 07:29:00,72.9,66.4,29.06,SSW,207,0.0,0.0,80,0.00,,---,0.00,VWS V14.00,2013-07-24 12:29:00,
2013-07-24 07:31:00,72.9,66.4,29.06,SSW,207,0.0,0.0,80,0.00,,---,0.00,VWS V14.00,2013-07-24 12:31:00,
2013-07-24 07:32:00,72.9,66.4,29.06,SSW,207,0.0,0.0,80,0.00,,---,0.00,VWS V14.00,2013-07-24 12:32:00,
2013-07-24 07:38:00,73.1,66.9,29.06,SSW,207,0.0,0.0,81,0.00,,---,0.00,VWS V14.00,2013-07-24 12:38:00,
2013-07-24 07:41:00,73.3,67.1,29.06,SSW,207,0.0,0.0,81,0.00,,---,0.00,VWS V14.00,2013-07-24 12:41:00,
2013-07-24 07:44:00,73.3,67.1,29.09,SSW,207,0.0,0.0,81,0.00,,---,0.00,VWS V14.00,2013-07-24 12:44:00,
2013-07-24 07:46:00,73.5,67.3,29.09,SSW,207,0.0,0.0,81,0.00,,---,0.00,VWS V14.00,2013-07-24 12:46:00,
2013-07-24 07:50:00,73.6,67.4,29.09,SSW,207,0.0,0.0,81,0.00,,---,0.00,VWS V14.00,2013-07-24 12:50:00,
2013-07-24 07:53:00,73.6,67.1,29.09,SSW,207,0.0,0.0,80,0.04,,---,0.04,VWS V14.00,2013-07-24 12:53:00,
2013-07-24 07:59:00,74.0,67.4,29.09,SSW,208,0.0,0.0,80,0.04,,---,0.04,VWS V14.00,2013-07-24 12:59:00,
2013-07-24 08:01:00,74.0,67.4,29.09,SSW,207,0.0,0.0,80,0.04,,---,0.04,VWS V14.00,2013-07-24 13:01:00,
2013-07-24 08:02:00,74.0,67.4,29.09,SSW,207,0.0,0.0,80,0.04,,---,0.04,VWS V14.00,2013-07-24 13:02:00,
2013-07-24 08:05:00,74.2,67.6,29.09,SSW,207,0.0,0.0,80,0.04,,---,0.04,VWS V14.00,2013-07-24 13:05:00,
2013-07-24 08:08:00,74.4,67.8,29.09,SSW,208,0.0,0.0,80,0.04,,---,0.04,VWS V14.00,2013-07-24 13:08:00,
2013-07-24 08:11:00,74.5,68.0,29.09,SSW,207,0.0,0.0,80,0.04,,---,0.04,VWS V14.00,2013-07-24 13:11:00,
2013-07-24 08:14:00,74.9,68.3,29.09,SSW,207,0.0,0.0,80,0.04,,---,0.04,VWS V14.00,2013-07-24 13:14:00,
2013-07-24 08:17:00,75.1,68.5,29.09,SSW,207,0.0,0.0,80,0.04,,---,0.04,VWS V14.00,2013-07-24 13:17:00,
2013-07-24 08:20:00,75.4,69.2,29.09,SSW,207,0.0,0.0,81,0.04,,---,0.04,VWS V14.00,2013-07-24 13:20:00,
2013-07-24 08:23:00,75.8,69.2,29.09,SSW,208,0.0,0.0,80,0.04,,---,0.04,VWS V14.00,2013-07-24 13:23:00,
2013-07-24 08:26:00,76.2,69.6,29.09,SSW,207,0.0,0.0,80,0.04,,---,0.04,VWS V14.00,2013-07-24 13:26:00,
2013-07-24 08:29:00,76.5,69.9,29.09,SSW,208,0.0,0.0,80,0.04,,---,0.04,VWS V14.00,2013-07-24 13:29:00,
2013-07-24 08:31:00,76.7,70.1,29.09,SSW,208,0.0,0.0,80,0.04,,---,0.04,VWS V14.00,2013-07-24 13:31:00,
2013-07-24 08:32:00,76.9,70.2,29.09,SSW,208,0.0,0.0,80,0.04,,---,0.04,VWS V14.00,2013-07-24 13:32:00,
2013-07-24 08:38:00,77.4,70.8,29.09,SSW,208,0.0,0.0,80,0.04,,---,0.04,VWS V14.00,2013-07-24 13:38:00,
2013-07-24 08:41:00,77.6,70.6,29.09,SSW,208,0.0,0.0,79,0.04,,---,0.04,VWS V14.00,2013-07-24 13:41:00,
2013-07-24 08:44:00,77.8,70.8,29.09,SSW,208,0.0,0.0,79,0.04,,---,0.04,VWS V14.00,2013-07-24 13:44:00,
2013-07-24 08:47:00,78.0,70.6,29.09,SSW,208,0.0,0.0,78,0.04,,---,0.04,VWS V14.00,2013-07-24 13:47:00,
2013-07-24 08:50:00,78.0,70.6,29.09,SSW,208,0.0,0.0,78,0.04,,---,0.04,VWS V14.00,2013-07-24 13:50:00,
2013-07-24 08:53:00,78.1,70.7,29.09,SSW,212,0.0,2.7,78,0.04,,---,0.04,VWS V14.00,2013-07-24 13:53:00,
2013-07-24 08:59:00,78.3,70.5,29.12,SSW,212,0.0,2.7,77,0.04,,---,0.04,VWS V14.00,2013-07-24 13:59:00,
2013-07-24 09:02:00,78.5,70.7,29.12,SSW,212,0.0,0.0,77,0.00,,---,0.04,VWS V14.00,2013-07-24 14:02:00,
2013-07-24 09:05:00,78.7,70.9,29.12,NNE,22,2.7,3.1,77,0.00,,---,0.04,VWS V14.00,2013-07-24 14:05:00,
2013-07-24 09:11:00,79.0,70.8,29.12,North,8,0.0,4.0,76,0.00,,---,0.04,VWS V14.00,2013-07-24 14:11:00,
2013-07-24 09:14:00,79.2,71.0,29.12,North,8,0.0,4.0,76,0.00,,---,0.04,VWS V14.00,2013-07-24 14:14:00,
2013-07-24 09:17:00,79.4,70.8,29.12,North,8,0.0,0.0,75,0.00,,---,0.04,VWS V14.00,2013-07-24 14:17:00,
2013-07-24 09:20:00,79.6,71.0,29.12,North,353,0.0,2.7,75,0.00,,---,0.04,VWS V14.00,2013-07-24 14:20:00,
2013-07-24 09:24:00,79.6,71.0,29.12,SE,137,0.0,2.7,75,0.00,,---,0.04,VWS V14.00,2013-07-24 14:24:00,
2013-07-24 09:27:00,79.8,71.1,29.12,North,10,0.0,2.7,75,0.00,,---,0.04,VWS V14.00,2013-07-24 14:27:00,
2013-07-24 09:31:00,80.1,71.5,29.09,NNW,335,2.7,2.7,75,0.00,,---,0.04,VWS V14.00,2013-07-24 14:31:00,
2013-07-24 09:33:00,80.1,71.1,29.09,NNW,338,0.0,2.7,74,0.00,,---,0.04,VWS V14.00,2013-07-24 14:33:00,
2013-07-24 09:39:00,80.5,71.4,29.09,North,353,0.0,3.1,74,0.00,,---,0.04,VWS V14.00,2013-07-24 14:39:00,
2013-07-24 09:42:00,80.5,71.0,29.09,NW,324,0.0,3.1,73,0.00,,---,0.04,VWS V14.00,2013-07-24 14:42:00,
2013-07-24 09:45:00,80.7,71.2,29.12,NNW,332,0.0,3.1,73,0.00,,---,0.04,VWS V14.00,2013-07-24 14:45:00,
2013-07-24 09:46:00,80.7,71.2,29.12,NNW,346,0.0,3.1,73,0.00,,---,0.04,VWS V14.00,2013-07-24 14:46:00,
2013-07-24 09:48:00,80.7,71.2,29.12,NNW,345,0.0,3.1,73,0.00,,---,0.04,VWS V14.00,2013-07-24 14:48:00,
2013-07-24 09:54:00,80.8,71.0,29.12,North,6,0.0,3.1,72,0.00,,---,0.04,VWS V14.00,2013-07-24 14:54:00,
2013-07-24 09:57:00,80.8,71.0,29.12,North,6,0.0,3.1,72,0.00,,---,0.04,VWS V14.00,2013-07-24 14:57:00,
2013-07-24 10:00:00,81.0,71.2,29.12,NNW,342,0.0,3.1,72,0.00,,---,0.04,VWS V14.00,2013-07-24 15:00:00,
2013-07-24 10:01:00,81.0,71.2,29.12,NNW,348,0.0,3.1,72,0.00,,---,0.04,VWS V14.00,2013-07-24 15:01:00,
2013-07-24 10:03:00,81.0,70.7,29.12,North,0,2.2,3.1,71,0.00,,---,0.04,VWS V14.00,2013-07-24 15:03:00,
2013-07-24 10:06:00,81.2,70.9,29.12,NNW,331,0.0,3.1,71,0.00,,---,0.04,VWS V14.00,2013-07-24 15:06:00,
2013-07-24 10:09:00,81.4,71.1,29.12,North,353,0.0,3.1,71,0.00,,---,0.04,VWS V14.00,2013-07-24 15:09:00,
2013-07-24 10:12:00,81.4,71.1,29.12,North,357,0.0,3.1,71,0.00,,---,0.04,VWS V14.00,2013-07-24 15:12:00,
2013-07-24 10:15:00,81.7,71.4,29.12,NNW,346,0.0,3.6,71,0.00,,---,0.04,VWS V14.00,2013-07-24 15:15:00,
2013-07-24 10:16:00,81.7,71.4,29.12,NNW,328,0.0,3.6,71,0.00,,---,0.04,VWS V14.00,2013-07-24 15:16:00,
2013-07-24 10:18:00,81.9,71.2,29.12,North,349,0.0,0.0,70,0.00,,---,0.04,VWS V14.00,2013-07-24 15:18:00,
2013-07-24 10:21:00,82.1,71.3,29.12,North,353,2.2,3.1,70,0.00,,---,0.04,VWS V14.00,2013-07-24 15:21:00,
2013-07-24 10:24:00,82.3,71.5,29.12,NNW,346,2.2,5.4,70,0.00,,---,0.04,VWS V14.00,2013-07-24 15:24:00,
2013-07-24 10:27:00,82.6,71.9,29.12,NNW,348,2.7,5.4,70,0.00,,---,0.04,VWS V14.00,2013-07-24 15:27:00,
2013-07-24 10:30:00,82.8,71.6,29.12,NNW,341,3.1,5.8,69,0.00,,---,0.04,VWS V14.00,2013-07-24 15:30:00,
2013-07-24 10:31:00,83.0,71.8,29.12,NE,40,0.0,5.8,69,0.00,,---,0.04,VWS V14.00,2013-07-24 15:31:00,
2013-07-24 10:33:00,83.2,71.5,29.12,NE,40,0.0,0.0,68,0.00,,---,0.04,VWS V14.00,2013-07-24 15:33:00,
2013-07-24 10:36:00,83.5,71.9,29.12,NNE,21,2.2,3.1,68,0.00,,---,0.04,VWS V14.00,2013-07-24 15:36:00,
2013-07-24 10:39:00,83.9,72.2,29.12,North,353,0.0,3.1,68,0.00,,---,0.04,VWS V14.00,2013-07-24 15:39:00,
2013-07-24 10:42:00,84.3,72.6,29.12,NNW,346,0.0,3.6,68,0.00,,---,0.04,VWS V14.00,2013-07-24 15:42:00,
2013-07-24 10:46:00,84.8,72.6,29.12,NNW,333,3.6,3.6,67,0.00,,---,0.04,VWS V14.00,2013-07-24 15:46:00,
2013-07-24 10:48:00,85.2,72.5,29.12,NW,326,0.0,3.6,66,0.00,,---,0.04,VWS V14.00,2013-07-24 15:48:00,
2013-07-24 10:51:00,85.7,72.6,29.12,North,353,0.0,5.4,65,0.00,,---,0.04,VWS V14.00,2013-07-24 15:51:00,
2013-07-24 10:54:00,85.9,72.8,29.12,NNW,335,0.0,5.4,65,0.00,,---,0.04,VWS V14.00,2013-07-24 15:54:00,
2013-07-24 10:57:00,86.1,72.5,29.12,NNW,340,3.1,5.4,64,0.00,,---,0.04,VWS V14.00,2013-07-24 15:57:00,
2013-07-24 11:00:00,86.2,72.2,29.15,NNW,339,2.2,5.4,63,0.00,,---,0.04,VWS V14.00,2013-07-24 16:00:00,
2013-07-24 11:03:00,86.4,72.3,29.15,North,6,0.0,4.0,63,0.00,,---,0.04,VWS V14.00,2013-07-24 16:03:00,
2013-07-24 11:06:00,86.6,72.0,29.15,NNW,346,0.0,5.4,62,0.00,,---,0.04,VWS V14.00,2013-07-24 16:06:00,
2013-07-24 11:09:00,86.8,72.2,29.15,NNW,343,2.7,5.4,62,0.00,,---,0.04,VWS V14.00,2013-07-24 16:09:00,
2013-07-24 11:12:00,87.0,71.9,29.15,NNW,345,2.7,5.4,61,0.00,,---,0.04,VWS V14.00,2013-07-24 16:12:00,
2013-07-24 11:15:00,87.1,72.1,29.15,NNW,341,0.0,5.4,61,0.00,,---,0.04,VWS V14.00,2013-07-24 16:15:00,
2013-07-24 11:21:00,87.3,71.8,29.15,NNW,336,0.0,3.6,60,0.00,,---,0.04,VWS V14.00,2013-07-24 16:21:00,
2013-07-24 11:24:00,87.5,71.4,29.15,NNW,327,2.2,3.6,59,0.00,,---,0.04,VWS V14.00,2013-07-24 16:24:00,
2013-07-24 11:30:00,87.7,72.1,29.15,North,0,0.0,4.0,60,0.00,,---,0.04,VWS V14.00,2013-07-24 16:30:00,
2013-07-24 11:33:00,87.9,71.8,29.15,NNW,345,2.7,2.7,59,0.00,,---,0.04,VWS V14.00,2013-07-24 16:33:00,
2013-07-24 11:39:00,88.2,72.1,29.15,NW,322,0.0,6.3,59,0.00,,---,0.04,VWS V14.00,2013-07-24 16:39:00,
2013-07-24 11:45:00,88.6,71.4,29.15,NNW,338,0.0,6.3,57,0.00,,---,0.04,VWS V14.00,2013-07-24 16:45:00,
2013-07-24 11:46:00,88.6,71.4,29.15,NNW,337,0.0,6.3,57,0.00,,---,0.04,VWS V14.00,2013-07-24 16:46:00,
2013-07-24 11:48:00,88.6,71.4,29.15,North,357,2.2,2.7,57,0.00,,---,0.04,VWS V14.00,2013-07-24 16:48:00,
2013-07-24 11:55:00,88.9,71.8,29.15,NNW,341,2.2,3.1,57,0.00,,---,0.04,VWS V14.00,2013-07-24 16:55:00,
2013-07-24 11:58:00,89.1,71.4,29.15,NNW,336,0.0,3.1,56,0.00,,---,0.04,VWS V14.00,2013-07-24 16:58:00,
2013-07-24 12:01:00,89.3,71.0,29.15,NNW,328,0.0,4.0,55,0.00,,---,0.04,VWS V14.00,2013-07-24 17:01:00,
2013-07-24 12:07:00,89.5,71.7,29.15,North,353,0.0,3.1,56,0.00,,---,0.04,VWS V14.00,2013-07-24 17:07:00,
2013-07-24 12:10:00,89.7,71.4,29.15,NNW,346,0.0,3.1,55,0.00,,---,0.04,VWS V14.00,2013-07-24 17:10:00,
2013-07-24 12:13:00,89.8,71.5,29.15,NNW,343,0.0,3.6,55,0.00,,---,0.04,VWS V14.00,2013-07-24 17:13:00,
2013-07-24 12:16:00,90.0,71.2,29.15,NNW,346,0.0,2.2,54,0.00,,---,0.04,VWS V14.00,2013-07-24 17:16:00,
2013-07-24 12:19:00,90.2,70.8,29.15,NNW,342,0.0,3.6,53,0.00,,---,0.04,VWS V14.00,2013-07-24 17:19:00,
2013-07-24 12:22:00,90.4,70.9,29.15,NNW,340,2.2,3.6,53,0.00,,---,0.04,VWS V14.00,2013-07-24 17:22:00,
2013-07-24 12:25:00,90.4,70.9,29.15,NNW,339,3.6,4.0,53,0.00,,---,0.04,VWS V14.00,2013-07-24 17:25:00,
2013-07-24 12:28:00,90.6,70.5,29.15,NNW,333,0.0,4.0,52,0.00,,---,0.04,VWS V14.00,2013-07-24 17:28:00,
2013-07-24 12:31:00,90.7,71.3,29.15,NNW,340,0.0,3.6,53,0.00,,---,0.04,VWS V14.00,2013-07-24 17:31:00,
2013-07-24 12:34:00,90.9,70.9,29.15,NNW,337,0.0,4.0,52,0.00,,---,0.04,VWS V14.00,2013-07-24 17:34:00,
2013-07-24 12:37:00,91.1,71.0,29.15,NNW,344,0.0,4.0,52,0.00,,---,0.04,VWS V14.00,2013-07-24 17:37:00,
2013-07-24 12:40:00,91.3,71.2,29.15,NNW,345,0.0,4.0,52,0.00,,---,0.04,VWS V14.00,2013-07-24 17:40:00,
2013-07-24 12:43:00,91.3,70.6,29.12,North,353,0.0,5.4,51,0.00,,---,0.04,VWS V14.00,2013-07-24 17:43:00,
2013-07-24 12:49:00,91.6,71.0,29.12,North,0,0.0,4.0,51,0.00,,---,0.04,VWS V14.00,2013-07-24 17:49:00,
2013-07-24 12:52:00,91.8,70.6,29.12,North,357,5.8,5.8,50,0.00,,---,0.04,VWS V14.00,2013-07-24 17:52:00,
2013-07-24 12:58:00,92.0,70.1,29.12,NNW,333,0.0,5.8,49,0.00,,---,0.04,VWS V14.00,2013-07-24 17:58:00,
2013-07-24 13:01:00,92.0,69.5,29.12,NNW,334,0.0,5.8,48,0.00,,---,0.04,VWS V14.00,2013-07-24 18:01:00,
2013-07-24 13:02:00,92.0,69.5,29.12,NNW,343,0.0,0.0,48,0.00,,---,0.04,VWS V14.00,2013-07-24 18:02:00,
2013-07-24 13:05:00,92.2,69.7,29.12,NNW,346,0.0,3.6,48,0.00,,---,0.04,VWS V14.00,2013-07-24 18:05:00,
2013-07-24 13:08:00,92.2,69.7,29.12,North,350,0.0,3.6,48,0.00,,---,0.04,VWS V14.00,2013-07-24 18:08:00,
2013-07-24 13:11:00,92.2,69.7,29.12,NNE,25,0.0,3.6,48,0.00,,---,0.04,VWS V14.00,2013-07-24 18:11:00,
2013-07-24 13:14:00,92.2,69.1,29.12,West,273,0.0,3.6,47,0.00,,---,0.04,VWS V14.00,2013-07-24 18:14:00,
2013-07-24 13:16:00,92.4,69.2,29.12,West,273,0.0,3.6,47,0.00,,---,0.04,VWS V14.00,2013-07-24 18:16:00,
2013-07-24 13:17:00,92.4,69.2,29.12,West,273,0.0,0.0,47,0.00,,---,0.04,VWS V14.00,2013-07-24 18:17:00,
2013-07-24 13:23:00,92.4,69.2,29.12,WNW,301,0.0,0.0,47,0.00,,---,0.04,VWS V14.00,2013-07-24 18:23:00,
2013-07-24 13:26:00,92.4,68.6,29.12,NW,323,0.0,0.0,46,0.00,,---,0.04,VWS V14.00,2013-07-24 18:26:00,
2013-07-24 13:35:00,91.8,68.1,29.12,NE,34,0.0,0.0,46,0.00,,---,0.04,VWS V14.00,2013-07-24 18:35:00,
2013-07-24 13:42:00,91.6,67.9,29.12,NNW,345,0.0,3.1,46,0.00,,---,0.04,VWS V14.00,2013-07-24 18:42:00,
2013-07-24 13:48:00,91.3,68.2,29.12,NNW,348,3.1,3.1,47,0.00,,---,0.04,VWS V14.00,2013-07-24 18:48:00,
2013-07-24 13:51:00,91.1,68.1,29.12,NNW,341,0.0,3.1,47,0.00,,---,0.04,VWS V14.00,2013-07-24 18:51:00,
2013-07-24 13:54:00,90.9,67.9,29.12,North,349,0.0,3.1,47,0.00,,---,0.04,VWS V14.00,2013-07-24 18:54:00,
2013-07-24 13:57:00,90.7,67.8,29.12,NNW,343,0.0,3.1,47,0.00,,---,0.04,VWS V14.00,2013-07-24 18:57:00,
2013-07-24 14:00:00,90.6,67.6,29.12,NNW,341,0.0,3.1,47,0.00,,---,0.04,VWS V14.00,2013-07-24 19:00:00,
2013-07-24 14:01:00,90.6,67.6,29.12,NNW,341,0.0,3.1,47,0.00,,---,0.04,VWS V14.00,2013-07-24 19:01:00,
2013-07-24 14:03:00,90.4,67.4,29.12,NNW,339,0.0,2.2,47,0.00,,---,0.04,VWS V14.00,2013-07-24 19:03:00,
2013-07-24 14:06:00,90.2,67.3,29.12,North,350,0.0,2.2,47,0.00,,---,0.04,VWS V14.00,2013-07-24 19:06:00,
2013-07-24 14:09:00,90.0,67.1,29.12,NNW,334,0.0,2.7,47,0.00,,---,0.04,VWS V14.00,2013-07-24 19:09:00,
2013-07-24 14:12:00,89.7,67.4,29.12,NNW,341,0.0,2.7,48,0.00,,---,0.04,VWS V14.00,2013-07-24 19:12:00,
2013-07-24 14:18:00,89.1,66.9,29.12,NNW,335,0.0,0.0,48,0.00,,---,0.04,VWS V14.00,2013-07-24 19:18:00,
2013-07-24 14:21:00,88.8,67.2,29.12,NNW,335,0.0,0.0,49,0.00,,---,0.04,VWS V14.00,2013-07-24 19:21:00,
2013-07-24 14:24:00,88.6,67.0,29.12,NNE,25,0.0,0.0,49,0.00,,---,0.04,VWS V14.00,2013-07-24 19:24:00,
2013-07-24 14:27:00,88.4,67.4,29.12,SSE,156,0.0,0.0,50,0.00,,---,0.04,VWS V14.00,2013-07-24 19:27:00,
2013-07-24 14:30:00,88.4,67.4,29.12,SSE,156,0.0,0.0,50,0.00,,---,0.04,VWS V14.00,2013-07-24 19:30:00,
2013-07-24 14:36:00,87.7,67.3,29.12,SSE,156,0.0,0.0,51,0.00,,---,0.04,VWS V14.00,2013-07-24 19:36:00,
2013-07-24 14:39:00,87.7,67.9,29.12,SSE,156,0.0,0.0,52,0.00,,---,0.04,VWS V14.00,2013-07-24 19:39:00,
2013-07-24 14:42:00,87.5,67.7,29.12,SSE,156,0.0,0.0,52,0.00,,---,0.04,VWS V14.00,2013-07-24 19:42:00,
2013-07-24 14:45:00,87.5,67.7,29.12,SSE,156,0.0,0.0,52,0.00,,---,0.04,VWS V14.00,2013-07-24 19:45:00,
2013-07-24 14:46:00,87.5,68.3,29.12,SSE,156,0.0,0.0,53,0.00,,---,0.04,VWS V14.00,2013-07-24 19:46:00,
2013-07-24 14:51:00,87.1,67.9,29.12,SSE,156,0.0,0.0,53,0.00,,---,0.04,VWS V14.00,2013-07-24 19:51:00,
2013-07-24 14:54:00,87.1,67.9,29.12,SSE,156,0.0,0.0,53,0.00,,---,0.04,VWS V14.00,2013-07-24 19:54:00,
2013-07-24 14:57:00,87.0,67.8,29.12,SSE,156,0.0,0.0,53,0.00,,---,0.04,VWS V14.00,2013-07-24 19:57:00,
2013-07-24 15:00:00,86.8,67.6,29.12,SSE,156,0.0,0.0,53,0.00,,---,0.04,VWS V14.00,2013-07-24 20:00:00,
2013-07-24 15:06:00,86.6,68.0,29.12,South,170,0.0,0.0,54,0.00,,---,0.04,VWS V14.00,2013-07-24 20:06:00,
2013-07-24 15:12:00,86.6,68.0,29.12,South,170,0.0,0.0,54,0.00,,---,0.04,VWS V14.00,2013-07-24 20:12:00,
2013-07-24 15:15:00,86.6,67.4,29.12,South,170,0.0,0.0,53,0.00,,---,0.04,VWS V14.00,2013-07-24 20:15:00,
2013-07-24 15:18:00,86.6,68.0,29.12,South,170,0.0,0.0,54,0.00,,---,0.04,VWS V14.00,2013-07-24 20:18:00,
2013-07-24 15:24:00,86.6,68.0,29.12,South,170,0.0,0.0,54,0.00,,---,0.04,VWS V14.00,2013-07-24 20:24:00,
2013-07-24 15:27:00,86.8,68.2,29.12,South,170,0.0,0.0,54,0.00,,---,0.04,VWS V14.00,2013-07-24 20:27:00,
2013-07-24 15:30:00,86.8,68.2,29.12,South,170,0.0,0.0,54,0.00,,---,0.04,VWS V14.00,2013-07-24 20:30:00,
2013-07-24 15:31:00,86.8,68.2,29.12,South,170,0.0,0.0,54,0.00,,---,0.04,VWS V14.00,2013-07-24 20:31:00,
2013-07-24 15:33:00,87.0,68.3,29.12,South,170,0.0,0.0,54,0.00,,---,0.04,VWS V14.00,2013-07-24 20:33:00,
2013-07-24 15:36:00,87.0,68.3,29.12,South,182,0.0,0.0,54,0.00,,---,0.04,VWS V14.00,2013-07-24 20:36:00,
2013-07-24 15:39:00,87.0,68.3,29.12,South,182,0.0,0.0,54,0.00,,---,0.04,VWS V14.00,2013-07-24 20:39:00,
2013-07-24 15:43:00,87.1,68.5,29.12,South,182,0.0,0.0,54,0.00,,---,0.04,VWS V14.00,2013-07-24 20:43:00,
2013-07-24 15:46:00,87.0,68.3,29.12,ESE,112,0.0,0.0,54,0.00,,---,0.04,VWS V14.00,2013-07-24 20:46:00,
2013-07-24 15:49:00,87.1,68.5,29.12,South,174,0.0,3.6,54,0.00,,---,0.04,VWS V14.00,2013-07-24 20:49:00,
2013-07-24 15:52:00,87.1,68.5,29.12,South,174,0.0,3.6,54,0.00,,---,0.04,VWS V14.00,2013-07-24 20:52:00,
2013-07-24 15:58:00,87.1,67.9,29.12,South,174,0.0,3.6,53,0.00,,---,0.04,VWS V14.00,2013-07-24 20:58:00,
2013-07-24 16:01:00,87.1,67.9,29.12,South,174,0.0,3.6,53,0.00,,---,0.04,VWS V14.00,2013-07-24 21:01:00,
2013-07-24 16:04:00,87.1,67.9,29.12,South,181,2.7,3.1,53,0.00,,---,0.04,VWS V14.00,2013-07-24 21:04:00,
2013-07-24 16:07:00,87.1,67.9,29.12,South,181,0.0,3.1,53,0.00,,---,0.04,VWS V14.00,2013-07-24 21:07:00,
2013-07-24 16:10:00,87.1,67.9,29.12,South,181,0.0,3.1,53,0.00,,---,0.04,VWS V14.00,2013-07-24 21:10:00,
2013-07-24 16:16:00,87.1,67.4,29.12,South,181,2.7,3.1,52,0.00,,---,0.04,VWS V14.00,2013-07-24 21:16:00,
2013-07-24 16:19:00,87.1,67.4,29.12,South,181,0.0,2.2,52,0.00,,---,0.04,VWS V14.00,2013-07-24 21:19:00,
2013-07-24 16:25:00,87.3,67.6,29.12,South,181,2.7,2.7,52,0.00,,---,0.04,VWS V14.00,2013-07-24 21:25:00,
2013-07-24 16:28:00,87.3,67.6,29.12,SSE,168,2.7,3.1,52,0.00,,---,0.04,VWS V14.00,2013-07-24 21:28:00,
2013-07-24 16:31:00,87.5,67.7,29.12,South,187,0.0,3.1,52,0.00,,---,0.04,VWS V14.00,2013-07-24 21:31:00,
2013-07-24 16:34:00,87.5,67.7,29.12,South,177,0.0,3.6,52,0.00,,---,0.04,VWS V14.00,2013-07-24 21:34:00,
2013-07-24 16:37:00,87.5,67.7,29.12,South,177,0.0,3.6,52,0.00,,---,0.04,VWS V14.00,2013-07-24 21:37:00,
2013-07-24 16:43:00,87.5,67.7,29.12,South,177,0.0,3.6,52,0.00,,---,0.04,VWS V14.00,2013-07-24 21:43:00,
2013-07-24 16:46:00,87.5,67.7,29.12,South,177,0.0,3.6,52,0.00,,---,0.04,VWS V14.00,2013-07-24 21:46:00,
2013-07-24 16:49:00,87.5,67.7,29.12,SSE,160,0.0,2.7,52,0.00,,---,0.04,VWS V14.00,2013-07-24 21:49:00,
2013-07-24 16:52:00,87.7,67.9,29.12,South,173,2.2,2.7,52,0.00,,---,0.04,VWS V14.00,2013-07-24 21:52:00,
2013-07-24 16:55:00,87.7,67.3,29.12,South,173,0.0,2.7,51,0.00,,---,0.04,VWS V14.00,2013-07-24 21:55:00,
2013-07-24 16:58:00,87.7,67.3,29.12,South,173,0.0,2.7,51,0.00,,---,0.04,VWS V14.00,2013-07-24 21:58:00,
2013-07-24 17:01:00,87.7,67.3,29.12,South,173,0.0,3.1,51,0.00,,---,0.04,VWS V14.00,2013-07-24 22:01:00,
2013-07-24 17:04:00,87.7,67.3,29.12,South,173,0.0,0.0,51,0.00,,---,0.04,VWS V14.00,2013-07-24 22:04:00,
2013-07-24 17:07:00,87.7,67.3,29.12,South,173,0.0,0.0,51,0.00,,---,0.04,VWS V14.00,2013-07-24 22:07:00,
2013-07-24 17:13:00,87.7,67.3,29.12,South,173,0.0,2.2,51,0.00,,---,0.04,VWS V14.00,2013-07-24 22:13:00,
2013-07-24 17:16:00,87.7,67.3,29.12,South,173,0.0,2.2,51,0.00,,---,0.04,VWS V14.00,2013-07-24 22:16:00,
2013-07-24 17:19:00,87.7,67.3,29.12,South,173,0.0,0.0,51,0.00,,---,0.04,VWS V14.00,2013-07-24 22:19:00,
2013-07-24 17:25:00,87.7,66.8,29.12,South,178,0.0,4.0,50,0.00,,---,0.04,VWS V14.00,2013-07-24 22:25:00,
2013-07-24 17:28:00,87.9,66.9,29.09,South,178,0.0,4.0,50,0.00,,---,0.04,VWS V14.00,2013-07-24 22:28:00,
2013-07-24 17:34:00,87.9,66.9,29.09,SSE,152,2.2,3.1,50,0.00,,---,0.04,VWS V14.00,2013-07-24 22:34:00,
2013-07-24 17:37:00,87.9,66.9,29.09,SSE,153,0.0,3.1,50,0.00,,---,0.04,VWS V14.00,2013-07-24 22:37:00,
2013-07-24 17:40:00,87.9,66.9,29.09,South,177,3.1,3.1,50,0.00,,---,0.04,VWS V14.00,2013-07-24 22:40:00,
2013-07-24 17:43:00,87.7,66.8,29.09,South,177,0.0,3.1,50,0.00,,---,0.04,VWS V14.00,2013-07-24 22:43:00,
2013-07-24 17:46:00,87.7,66.2,29.09,South,177,0.0,0.0,49,0.00,,---,0.04,VWS V14.00,2013-07-24 22:46:00,
2013-07-24 17:49:00,87.7,66.2,29.09,South,177,0.0,2.7,49,0.00,,---,0.04,VWS V14.00,2013-07-24 22:49:00,
2013-07-24 17:52:00,87.7,66.2,29.09,SSW,194,0.0,3.1,49,0.00,,---,0.04,VWS V14.00,2013-07-24 22:52:00,
2013-07-24 17:55:00,87.7,66.2,29.09,SSW,194,0.0,3.1,49,0.00,,---,0.04,VWS V14.00,2013-07-24 22:55:00,
2013-07-24 18:01:00,87.7,66.2,29.09,SSW,194,0.0,3.1,49,0.00,,---,0.04,VWS V14.00,2013-07-24 23:01:00,
2013-07-24 18:07:00,87.7,66.2,29.09,SSW,194,0.0,0.0,49,0.00,,---,0.04,VWS V14.00,2013-07-24 23:07:00,
2013-07-24 18:10:00,87.5,66.0,29.09,SSW,194,0.0,0.0,49,0.00,,---,0.04,VWS V14.00,2013-07-24 23:10:00,
2013-07-24 18:13:00,87.5,66.0,29.09,SSW,194,0.0,0.0,49,0.00,,---,0.04,VWS V14.00,2013-07-24 23:13:00,
2013-07-24 18:16:00,87.5,66.0,29.09,SSW,194,0.0,0.0,49,0.00,,---,0.04,VWS V14.00,2013-07-24 23:16:00,
2013-07-24 18:19:00,87.5,66.0,29.09,SSW,194,0.0,0.0,49,0.00,,---,0.04,VWS V14.00,2013-07-24 23:19:00,
2013-07-24 18:22:00,87.3,65.8,29.09,SSW,194,0.0,0.0,49,0.00,,---,0.04,VWS V14.00,2013-07-24 23:22:00,
2013-07-24 18:25:00,87.3,66.4,29.09,SSW,194,0.0,0.0,50,0.00,,---,0.04,VWS V14.00,2013-07-24 23:25:00,
2013-07-24 18:28:00,87.3,66.4,29.09,SSW,194,0.0,0.0,50,0.00,,---,0.04,VWS V14.00,2013-07-24 23:28:00,
2013-07-24 18:31:00,87.3,66.4,29.09,SSW,194,0.0,0.0,50,0.00,,---,0.04,VWS V14.00,2013-07-24 23:31:00,
2013-07-24 18:34:00,87.3,66.4,29.09,SSW,194,0.0,0.0,50,0.00,,---,0.04,VWS V14.00,2013-07-24 23:34:00,
2013-07-24 18:40:00,87.1,65.7,29.09,SSW,194,0.0,0.0,49,0.00,,---,0.04,VWS V14.00,2013-07-24 23:40:00,
2013-07-24 18:43:00,87.1,65.7,29.09,SSW,194,0.0,0.0,49,0.00,,---,0.04,VWS V14.00,2013-07-24 23:43:00,
2013-07-24 18:46:00,87.1,65.7,29.09,SSW,194,0.0,0.0,49,0.00,,---,0.04,VWS V14.00,2013-07-24 23:46:00,
2013-07-24 18:52:00,87.0,66.1,29.09,SSW,194,0.0,0.0,50,0.00,,---,0.04,VWS V14.00,2013-07-24 23:52:00,
2013-07-24 18:56:00,86.8,65.9,29.09,SSW,194,0.0,0.0,50,0.00,,---,0.04,VWS V14.00,2013-07-24 23:56:00,
2013-07-24 18:59:00,86.8,66.5,29.09,SSW,194,0.0,0.0,51,0.00,,---,0.04,VWS V14.00,2013-07-24 23:59:00,
2013-07-24 19:01:00,86.6,66.3,29.09,SSW,194,0.0,0.0,51,0.00,,---,0.04,VWS V14.00,2013-07-25 00:01:00,
2013-07-24 19:05:00,86.4,66.2,29.09,SSW,194,0.0,0.0,51,0.00,,---,0.04,VWS V14.00,2013-07-25 00:05:00,
2013-07-24 19:08:00,86.4,66.7,29.09,SSW,194,0.0,0.0,52,0.00,,---,0.04,VWS V14.00,2013-07-25 00:08:00,
2013-07-24 19:11:00,86.4,66.7,29.09,SSW,194,0.0,0.0,52,0.00,,---,0.04,VWS V14.00,2013-07-25 00:11:00,
2013-07-24 19:14:00,86.2,66.6,29.09,SSW,194,0.0,0.0,52,0.00,,---,0.04,VWS V14.00,2013-07-25 00:14:00,
2013-07-24 19:16:00,86.2,66.6,29.09,SSW,194,0.0,0.0,52,0.00,,---,0.04,VWS V14.00,2013-07-25 00:16:00,
2013-07-24 19:17:00,86.2,66.6,29.09,SSW,194,0.0,0.0,52,0.00,,---,0.04,VWS V14.00,2013-07-25 00:17:00,
2013-07-24 19:20:00,86.2,66.6,29.09,SSW,194,0.0,0.0,52,0.00,,---,0.04,VWS V14.00,2013-07-25 00:20:00,
2013-07-24 19:26:00,86.1,66.4,29.09,SSW,194,0.0,0.0,52,0.00,,---,0.04,VWS V14.00,2013-07-25 00:26:00,
2013-07-24 19:29:00,85.9,66.2,29.09,SSW,194,0.0,0.0,52,0.00,,---,0.04,VWS V14.00,2013-07-25 00:29:00,
2013-07-24 19:35:00,85.5,66.4,29.09,SSW,194,0.0,0.0,53,0.00,,---,0.04,VWS V14.00,2013-07-25 00:35:00,
2013-07-24 19:38:00,85.5,66.4,29.09,SSW,194,0.0,0.0,53,0.00,,---,0.04,VWS V14.00,2013-07-25 00:38:00,
2013-07-24 19:44:00,85.2,66.1,29.09,SSW,194,0.0,0.0,53,0.00,,---,0.04,VWS V14.00,2013-07-25 00:44:00,
2013-07-24 19:46:00,85.2,66.7,29.09,SSW,194,0.0,0.0,54,0.00,,---,0.04,VWS V14.00,2013-07-25 00:46:00,
2013-07-24 19:47:00,85.2,66.7,29.09,SSW,194,0.0,0.0,54,0.00,,---,0.04,VWS V14.00,2013-07-25 00:47:00,
2013-07-24 19:50:00,85.0,66.5,29.09,SSW,194,0.0,0.0,54,0.00,,---,0.04,VWS V14.00,2013-07-25 00:50:00,
2013-07-24 19:56:00,85.0,67.0,29.09,SSW,194,0.0,0.0,55,0.00,,---,0.04,VWS V14.00,2013-07-25 00:56:00,
2013-07-24 19:59:00,85.0,67.0,29.12,SSW,194,0.0,0.0,55,0.00,,---,0.04,VWS V14.00,2013-07-25 00:59:00,
2013-07-24 20:01:00,85.0,67.0,29.12,SSW,194,0.0,0.0,55,0.00,,---,0.04,VWS V14.00,2013-07-25 01:01:00,
2013-07-24 20:05:00,84.8,66.8,29.12,SSW,194,0.0,0.0,55,0.00,,---,0.04,VWS V14.00,2013-07-25 01:05:00,
2013-07-24 20:08:00,84.6,66.7,29.12,SSW,194,0.0,0.0,55,0.00,,---,0.04,VWS V14.00,2013-07-25 01:08:00,
2013-07-24 20:11:00,84.6,66.7,29.12,SSW,194,0.0,0.0,55,0.00,,---,0.04,VWS V14.00,2013-07-25 01:11:00,
2013-07-24 20:14:00,84.4,66.5,29.09,SSW,194,0.0,0.0,55,0.00,,---,0.04,VWS V14.00,2013-07-25 01:14:00,
2013-07-24 20:16:00,84.4,66.5,29.09,SSW,194,0.0,0.0,55,0.00,,---,0.04,VWS V14.00,2013-07-25 01:16:00,
2013-07-24 20:20:00,84.3,66.9,29.09,SSW,194,0.0,0.0,56,0.00,,---,0.04,VWS V14.00,2013-07-25 01:20:00,
2013-07-24 20:26:00,84.1,66.7,29.09,SSW,194,0.0,0.0,56,0.00,,---,0.04,VWS V14.00,2013-07-25 01:26:00,
2013-07-24 20:29:00,83.9,67.1,29.12,SSW,194,0.0,0.0,57,0.00,,---,0.04,VWS V14.00,2013-07-25 01:29:00,
2013-07-24 20:32:00,83.9,67.6,29.12,SSW,194,0.0,0.0,58,0.00,,---,0.04,VWS V14.00,2013-07-25 01:32:00,
2013-07-24 20:35:00,83.7,67.4,29.12,SSW,194,0.0,0.0,58,0.00,,---,0.04,VWS V14.00,2013-07-25 01:35:00,
2013-07-24 20:38:00,83.5,67.7,29.12,SSW,194,0.0,0.0,59,0.00,,---,0.04,VWS V14.00,2013-07-25 01:38:00,
2013-07-24 20:41:00,83.5,68.2,29.12,SSW,194,0.0,0.0,60,0.00,,---,0.04,VWS V14.00,2013-07-25 01:41:00,
2013-07-24 20:44:00,83.4,68.5,29.12,SSW,194,0.0,0.0,61,0.00,,---,0.04,VWS V14.00,2013-07-25 01:44:00,
2013-07-24 20:46:00,83.4,68.5,29.12,SSW,194,0.0,0.0,61,0.00,,---,0.04,VWS V14.00,2013-07-25 01:46:00,
2013-07-24 20:50:00,83.2,68.8,29.12,SSW,194,0.0,0.0,62,0.00,,---,0.04,VWS V14.00,2013-07-25 01:50:00,
2013-07-24 20:56:00,82.8,69.4,29.12,SSW,194,0.0,0.0,64,0.00,,---,0.04,VWS V14.00,2013-07-25 01:56:00,
2013-07-24 20:59:00,82.8,69.4,29.12,SSW,194,0.0,0.0,64,0.00,,---,0.04,VWS V14.00,2013-07-25 01:59:00,
2013-07-24 21:01:00,82.8,69.9,29.12,SSW,194,0.0,0.0,65,0.00,,---,0.04,VWS V14.00,2013-07-25 02:01:00,
2013-07-24 21:02:00,82.6,69.7,29.12,SSW,194,0.0,0.0,65,0.00,,---,0.04,VWS V14.00,2013-07-25 02:02:00,
2013-07-24 21:05:00,82.6,69.7,29.12,SSW,194,0.0,0.0,65,0.00,,---,0.04,VWS V14.00,2013-07-25 02:05:00,
2013-07-24 21:11:00,82.5,70.0,29.12,SSW,194,0.0,0.0,66,0.00,,---,0.04,VWS V14.00,2013-07-25 02:11:00,
2013-07-24 21:14:00,82.3,69.8,29.12,SSW,194,0.0,0.0,66,0.00,,---,0.04,VWS V14.00,2013-07-25 02:14:00,
2013-07-24 21:16:00,82.1,69.6,29.12,SSW,194,0.0,0.0,66,0.00,,---,0.04,VWS V14.00,2013-07-25 02:16:00,
2013-07-24 21:20:00,81.9,69.4,29.12,SSW,194,0.0,0.0,66,0.00,,---,0.04,VWS V14.00,2013-07-25 02:20:00,
2013-07-24 21:26:00,81.9,69.4,29.12,SSW,194,0.0,0.0,66,0.00,,---,0.04,VWS V14.00,2013-07-25 02:26:00,
2013-07-24 21:29:00,81.7,69.7,29.12,SSW,194,0.0,0.0,67,0.00,,---,0.04,VWS V14.00,2013-07-25 02:29:00,
2013-07-24 21:31:00,81.6,69.6,29.12,SSW,194,0.0,0.0,67,0.00,,---,0.04,VWS V14.00,2013-07-25 02:31:00,
2013-07-24 21:32:00,81.6,69.6,29.12,SSW,194,0.0,0.0,67,0.00,,---,0.04,VWS V14.00,2013-07-25 02:32:00,
2013-07-24 21:38:00,81.6,69.6,29.12,SSW,194,0.0,0.0,67,0.00,,---,0.04,VWS V14.00,2013-07-25 02:38:00,
2013-07-24 21:42:00,81.4,69.4,29.12,SSW,194,0.0,0.0,67,0.00,,---,0.04,VWS V14.00,2013-07-25 02:42:00,
2013-07-24 21:45:00,81.4,69.4,29.12,SSW,194,0.0,0.0,67,0.00,,---,0.04,VWS V14.00,2013-07-25 02:45:00,
2013-07-24 21:46:00,81.4,69.4,29.12,SSW,194,0.0,0.0,67,0.00,,---,0.04,VWS V14.00,2013-07-25 02:46:00,
2013-07-24 21:51:00,81.0,69.0,29.12,SSW,194,0.0,0.0,67,0.00,,---,0.04,VWS V14.00,2013-07-25 02:51:00,
2013-07-24 21:54:00,81.0,69.5,29.12,SSW,194,0.0,0.0,68,0.00,,---,0.04,VWS V14.00,2013-07-25 02:54:00,
2013-07-24 21:57:00,80.8,69.3,29.12,SSW,194,0.0,0.0,68,0.00,,---,0.04,VWS V14.00,2013-07-25 02:57:00,
2013-07-24 22:03:00,80.8,69.3,29.12,SSW,194,0.0,0.0,68,0.00,,---,0.04,VWS V14.00,2013-07-25 03:03:00,
2013-07-24 22:06:00,80.7,69.1,29.12,SSW,194,0.0,0.0,68,0.00,,---,0.04,VWS V14.00,2013-07-25 03:06:00,
2013-07-24 22:15:00,80.7,68.7,29.15,North,357,0.0,0.0,67,0.00,,---,0.04,VWS V14.00,2013-07-25 03:15:00,
2013-07-24 22:18:00,80.7,68.7,29.15,NNW,341,0.0,0.0,67,0.00,,---,0.04,VWS V14.00,2013-07-25 03:18:00,
2013-07-24 22:24:00,80.7,68.3,29.15,North,8,0.0,2.7,66,0.00,,---,0.04,VWS V14.00,2013-07-25 03:24:00,
2013-07-24 22:27:00,80.7,67.8,29.15,WNW,288,0.0,2.7,65,0.00,,---,0.04,VWS V14.00,2013-07-25 03:27:00,
2013-07-24 22:30:00,80.5,67.6,29.15,West,275,0.0,2.7,65,0.00,,---,0.04,VWS V14.00,2013-07-25 03:30:00,
2013-07-24 22:40:00,80.1,66.4,29.15,West,265,0.0,0.0,63,0.00,,---,0.04,VWS V14.00,2013-07-25 03:40:00,
2013-07-24 22:46:00,79.9,65.8,29.15,SSW,213,0.0,2.2,62,0.00,,---,0.04,VWS V14.00,2013-07-25 03:46:00,
2013-07-24 22:52:00,79.8,65.1,29.15,SSW,213,0.0,0.0,61,0.00,,---,0.04,VWS V14.00,2013-07-25 03:52:00,
2013-07-24 22:55:00,79.8,65.1,29.15,West,277,0.0,0.0,61,0.00,,---,0.04,VWS V14.00,2013-07-25 03:55:00,
2013-07-24 23:01:00,79.8,65.6,29.15,NE,41,0.0,0.0,62,0.00,,---,0.04,VWS V14.00,2013-07-25 04:01:00,
2013-07-24 23:02:00,79.6,65.4,29.15,North,0,0.0,0.0,62,0.00,,---,0.04,VWS V14.00,2013-07-25 04:02:00,
2013-07-24 23:05:00,79.6,65.4,29.15,NW,314,0.0,0.0,62,0.00,,---,0.04,VWS V14.00,2013-07-25 04:05:00,
2013-07-24 23:08:00,79.6,65.4,29.15,North,1,0.0,0.0,62,0.00,,---,0.04,VWS V14.00,2013-07-25 04:08:00,
2013-07-24 23:11:00,79.6,65.4,29.15,North,1,0.0,0.0,62,0.00,,---,0.04,VWS V14.00,2013-07-25 04:11:00,
2013-07-24 23:14:00,79.4,65.3,29.15,North,1,0.0,0.0,62,0.00,,---,0.04,VWS V14.00,2013-07-25 04:14:00,
2013-07-24 23:16:00,79.4,65.3,29.15,North,1,0.0,0.0,62,0.00,,---,0.04,VWS V14.00,2013-07-25 04:16:00,
2013-07-24 23:17:00,79.4,65.3,29.15,North,1,0.0,0.0,62,0.00,,---,0.04,VWS V14.00,2013-07-25 04:17:00,
2013-07-24 23:20:00,79.2,65.6,29.15,North,1,0.0,0.0,63,0.00,,---,0.04,VWS V14.00,2013-07-25 04:20:00,
2013-07-24 23:23:00,79.0,65.4,29.15,North,1,0.0,0.0,63,0.00,,---,0.04,VWS V14.00,2013-07-25 04:23:00,
2013-07-24 23:26:00,79.0,65.4,29.15,North,1,0.0,0.0,63,0.00,,---,0.04,VWS V14.00,2013-07-25 04:26:00,
2013-07-24 23:29:00,78.9,65.2,29.15,North,1,0.0,0.0,63,0.00,,---,0.04,VWS V14.00,2013-07-25 04:29:00,
2013-07-24 23:31:00,78.9,65.2,29.15,North,1,0.0,0.0,63,0.00,,---,0.04,VWS V14.00,2013-07-25 04:31:00,
2013-07-24 23:35:00,78.7,65.0,29.15,North,1,0.0,0.0,63,0.00,,---,0.04,VWS V14.00,2013-07-25 04:35:00,
2013-07-24 23:38:00,78.5,64.9,29.15,North,1,0.0,0.0,63,0.00,,---,0.04,VWS V14.00,2013-07-25 04:38:00,
2013-07-24 23:44:00,78.3,64.7,29.15,North,1,0.0,0.0,63,0.00,,---,0.04,VWS V14.00,2013-07-25 04:44:00,
2013-07-24 23:46:00,78.3,64.7,29.15,North,1,0.0,0.0,63,0.00,,---,0.04,VWS V14.00,2013-07-25 04:46:00,
2013-07-24 23:47:00,78.3,64.7,29.15,North,1,0.0,0.0,63,0.00,,---,0.04,VWS V14.00,2013-07-25 04:47:00,
2013-07-24 23:50:00,78.3,65.2,29.15,North,1,0.0,0.0,64,0.00,,---,0.04,VWS V14.00,2013-07-25 04:50:00,
2013-07-24 23:53:00,78.1,65.0,29.15,North,1,0.0,0.0,64,0.00,,---,0.04,VWS V14.00,2013-07-25 04:53:00,
2013-07-24 23:56:00,78.1,65.0,29.15,North,1,0.0,0.0,64,0.00,,---,0.04,VWS V14.00,2013-07-25 04:56:00,
2013-07-24 23:59:00,78.1,65.0,29.15,North,1,0.0,0.0,64,0.00,,---,0.04,VWS V14.00,2013-07-25 04:59:00,